Regional Weather Roundup
Issued by NWS

Home | Current Version | Previous Version | Text Only | Print | Product List | Glossary On
Versions: 1 2 3 4 5 6 7 8 9 10 11 12 13 14 15 16 17 18 19 20 21 22 23 24 25 26 27 28 29 30 31 32 33 34 35 36 37 38 39 40 41 42 43 44 45 46 47 48 49 50
000
ASUS44 KEWX 031810
RWRTX
SOUTH TEXAS REGIONAL WEATHER ROUNDUP
NATIONAL WEATHER SERVICE AUSTIN/SAN ANTONIO TX
1200 PM CST TUE MAR 03 2015

NOTE: "FAIR" INDICATED FEW OR NO CLOUDS BELOW 12,000 FEET WITH NO
SIGNIFICANT WEATHER AND/OR OBSTRUCTIONS TO VISIBILITY.

* - THESE STATIONS ARE NOT NWS OR FAA STATIONS...AND ARE NOT SUBJECT
    TO NWS AND FAA QUALITY CONTROL.

TXZ171-172-183>190-031900-
TEXAS HILL COUNTRY AND EDWARDS PLATEAU

CITY           SKY/WX    TMP DP  RH WIND       PRES   REMARKS
JUNCTION       CLOUDY    62  56  80 SW9       29.91F
6HR MIN TEMP:  40; 6HR MAX TEMP:  62;

*LLANO         FOG       46  46 100 E3        29.98F VSB 1/2
BURNET         FOG       50  50 100 S6        29.96F VSB 3/4 WCI  48
*HORSESHOE BAY CLOUDY   N/A N/A N/A S8        29.93F
*KERRVILLE     CLOUDY    56  55  95 S9        29.95F
6HR MIN TEMP:  44; 6HR MAX TEMP:  56;

*FREDERICKSBRG CLOUDY    55  55  98 SW8       29.95F FOG
*ROCKSPRINGS   CLOUDY    54  54 100 S8        29.96F FOG
*BOERNE STAGE  CLOUDY    54  54 100 S8        29.96F VSB 1/2
*CASTROVILLE   CLOUDY    53  53 100 CALM      30.00F FOG
HONDO          CLOUDY    55  53  93 SE5       29.98F FOG
6HR MIN TEMP:  47; 6HR MAX TEMP:  55; 6HR PCP:  0.01;

*UVALDE        CLOUDY    52  50  93 SE3       29.97F FOG
6HR MIN TEMP:  47; 6HR MAX TEMP:  52;

DEL RIO        CLOUDY    54  48  80 E10       29.94F
6HR MIN TEMP:  48; 6HR MAX TEMP:  54;

LAUGHLIN AFB   CLOUDY    54  50  87 SE8       29.94F
6HR MIN TEMP:  48; 6HR MAX TEMP:  53;

CARRIZO SPRGS  CLOUDY    52  50  93 SE3       29.97F
$$

TXZ173-191>194-202-209-217>225-228-031900-
CENTRAL AND SOUTH CENTRAL TEXAS

CITY           SKY/WX    TMP DP  RH WIND       PRES   REMARKS
GEORGETOWN     FOG       48  46  93 CALM      29.96F VSB 1/2
AUSTIN/BERGSTM FOG       47  47 100 CALM      29.97F VSB 1/4
6HR MIN TEMP:  42; 6HR MAX TEMP:  47; 6HR PCP:  0.02;

AUSTIN/MABRY   FOG       49  48  97 CALM      29.97F VSB 3/4
6HR MIN TEMP:  42; 6HR MAX TEMP:  49; 6HR PCP:  0.01;

*AUSTIN/EXEC   FOG       48  48 100 CALM      29.97F VSB<1/4
*LAGO VISTA    DRZL/FOG  51  50  95 SE6       29.95F VSB<1/4
6HR MIN TEMP:  42; 6HR MAX TEMP:  51;

SAN MARCOS     CLOUDY    50  48  93 MISG      30.98R
NEW BRAUNFELS  FOG       53  53 100 S5        29.96F VSB 1/8
6HR MIN TEMP:  45; 6HR MAX TEMP:  53; 6HR PCP: TRACE;

RANDOLPH AFB   FOG       54  52  94 S6        29.97F VSB 1/2
                                      6HR PCP:  0.02;

PT SAN ANTONIO CLOUDY    53  53 100 CALM      29.96F FOG
6HR MIN TEMP:  47; 6HR MAX TEMP:  53; 6HR PCP: TRACE;

SAN ANTONIO    FOG       55  52  89 S5        29.98F VSB 1/2
6HR MIN TEMP:  48; 6HR MAX TEMP:  55; 6HR PCP:  0.02;

STINSON FIELD  CLOUDY    52  51  97 CALM      29.97F FOG
6HR MIN TEMP:  47; 6HR MAX TEMP:  52; 6HR PCP: TRACE;

*PLEASANTON    CLOUDY    51  50  96 CALM      30.00F FOG
6HR MIN TEMP:  46; 6HR MAX TEMP:  51;

*LA GRANGE     CLOUDY    66  66 100 S12       29.94F FOG
6HR MIN TEMP:  47; 6HR MAX TEMP:  66; 6HR PCP:  0.01;

*GIDDINGS      FOG       59  58  98 S6        30.00F VSB 1/4
6HR MIN TEMP:  44; 6HR MAX TEMP:  59; 6HR PCP:  0.01;

*GONZALES      NOT AVBL
$$

TXZ163>164-176>182-195>201-210>213-226-227-235-031900-
SOUTHEAST TEXAS

CITY           SKY/WX    TMP DP  RH WIND       PRES   REMARKS
COLLEGE STN    CLOUDY    62  62 100 S7        29.97F FOG
6HR MIN TEMP:  46; 6HR MAX TEMP:  62; 6HR PCP: TRACE;

*BRYAN         NOT AVBL
*CALDWELL      FOG       57  57 100 SE9       29.99F VSB 1/4
*CROCKETT      CLOUDY    68  64  88 S10       30.02F
*BRENHAM       CLOUDY    66  65  99 S7        29.99F FOG
HUNTSVILLE     CLOUDY    67  64  90 S8        29.99F
6HR MIN TEMP:  54; 6HR MAX TEMP:  67;

CONROE         CLOUDY    66  64  93 S13       30.00F FOG
6HR MIN TEMP:  54; 6HR MAX TEMP:  66;

HOUSTON BUSH   CLOUDY    72  67  84 S12       30.00F FOG
6HR MIN TEMP:  58; 6HR MAX TEMP:  72;

HOUSTON HOBBY  PTSUNNY   75  68  78 S13G20    29.99F
6HR MIN TEMP:  58; 6HR MAX TEMP:  75;

*HOUSTON SW AP CLOUDY    71  68  90 MISG      30.01F
PEARLAND       CLOUDY    75  67  76 S15G24    30.01F
6HR MIN TEMP:  59; 6HR MAX TEMP:  75;

HOUSTON HOOKS  CLOUDY    69  65  86 S8        30.00F
6HR MIN TEMP:  56; 6HR MAX TEMP:  70;

ELLINGTON FLD  CLOUDY    72  66  83 S15       30.02F
SUGAR LAND     CLOUDY    74  67  78 S20       29.99F
6HR MIN TEMP:  60; 6HR MAX TEMP:  74;

*HOUSTON EXEC  CLOUDY    72  70  94 S14       30.00F
*CLEVELAND MUN   N/A     66  66 100 S12       30.03F FOG
*WHARTON       CLOUDY    70  70  98 S17G25    30.00F
*COLUMBUS      NOT AVBL
$$

TXZ214>216-236>238-031900-
THE UPPER TEXAS COAST

CITY           SKY/WX    TMP DP  RH WIND       PRES   REMARKS
*ORANGE        CLOUDY    68  67  96 S14       30.05F
6HR MIN TEMP:  56; 6HR MAX TEMP:  68; 6HR PCP:  0.01;

PORT ARTHUR    PTSUNNY   76  67  73 S13       30.02F
6HR MIN TEMP:  58; 6HR MAX TEMP:  76;

GALVESTON      CLOUDY    67  65  93 S18       30.03F FOG
6HR MIN TEMP:  58; 6HR MAX TEMP:  68; 6HR PCP:  0.01;

ANGLETON       CLOUDY    73  67  81 S21       30.00F
6HR MIN TEMP:  60; 6HR MAX TEMP:  73;

*BAY CITY      CLOUDY    75  71  86 S21       30.00F
PALACIOS       CLOUDY    72  68  87 S18       29.99F
6HR MIN TEMP:  58; 6HR MAX TEMP:  72;

$$

TXZ229>234-239>247-031900-
TEXAS COASTAL BEND AND RIO GRANDE PLAINS

CITY           SKY/WX    TMP DP  RH WIND       PRES   REMARKS
VICTORIA       CLOUDY    70  68  93 S16G24    29.98F
6HR MIN TEMP:  52; 6HR MAX TEMP:  70;

*BEEVILLE      FOG       55  55 100 CALM      29.99F VSB 3/4
6HR MIN TEMP:  49; 6HR MAX TEMP:  55;

ROCKPORT       CLOUDY    70  66  87 S12G18    29.97F
6HR MIN TEMP:  55; 6HR MAX TEMP:  70;

*PORT ARANSAS  CLOUDY    63  63 100 SE7       29.97F FOG
6HR MIN TEMP:  57; 6HR MAX TEMP:  64;

*PORT LAVACA   CLOUDY    71  70  97 S21G26    29.99F
6HR MIN TEMP:  53; 6HR MAX TEMP:  71;

*INGLESIDE       N/A    N/A N/A N/A S15       29.97F
CORPUS CHRISTI DRIZZLE   63  61  93 SW8       29.98F FOG
6HR MIN TEMP:  54; 6HR MAX TEMP:  64; 6HR PCP: TRACE;

CORPUS NAS     FOG       67  66  97 S13       29.98F VSB 1
6HR MIN TEMP:  55; 6HR MAX TEMP:  67;

*ROBSTOWN      FOG       59  59 100 NW3       29.98F VSB 1
ALICE          CLOUDY    55  54  96 CALM      29.97F FOG
6HR MIN TEMP:  51; 6HR MAX TEMP:  55;

KINGSVILLE NAS FOG       58  58 100 W3        29.98F VSB 1/2
6HR MIN TEMP:  53; 6HR MAX TEMP:  58;

COTULLA        CLOUDY    53  50  89 SE6       29.98F FOG
6HR MIN TEMP:  48; 6HR MAX TEMP:  53;

*FAITH RANCH   CLOUDY    54  50  87 CALM      29.98F
LAREDO         CLOUDY    54  51  89 CALM      29.99F
6HR MIN TEMP:  48; 6HR MAX TEMP:  54; 6HR PCP: TRACE;

$$

TXZ248>255-031900-
DEEP SOUTH TEXAS

CITY           SKY/WX    TMP DP  RH WIND       PRES   REMARKS
BROWNSVILLE    PTSUNNY   77  69  76 S21G28    29.97F
6HR MIN TEMP:  57; 6HR MAX TEMP:  77;

PORT ISABEL    PTSUNNY   74  70  87 S20       29.97F FOG
6HR MIN TEMP:  57; 6HR MAX TEMP:  75;

*SOUTH PADRE   SUNNY     68  68 100 S12       29.98F
HARLINGEN      CLOUDY    72  69  90 S15       29.97F FOG
6HR MIN TEMP:  55; 6HR MAX TEMP:  72;

*HEBBRONVILLE  RAIN     N/A N/A N/A CALM      29.98F
MCALLEN        CLOUDY    61  59  93 S3        29.99F FOG
6HR MIN TEMP:  53; 6HR MAX TEMP:  61;

*WESLACO       FOG       58  57  95 CALM      29.99F VSB 1/2
FALFURRIAS     CLOUDY    55  54  94 CALM      29.98F VSB 1/2
6HR MIN TEMP:  51; 6HR MAX TEMP:  55;

EDINBURG       CLOUDY    59  57  93 CALM      29.99F FOG
6HR MIN TEMP:  54; 6HR MAX TEMP:  59;

*ZAPATA        CLOUDY    55  54  96 CALM      29.98F
$$

TXZ213>215-236>238-242>244-246-247-251-254-255-031900-
CMAN STATIONS




USA.gov is the U.S. government's official web portal to all federal, state and local government web resources and services.